Date,TemperatureHighF,TemperatureAvgF,TemperatureLowF,DewpointHighF,DewpointAvgF,DewpointLowF,HumidityHigh,HumidityAvg,HumidityLow,PressureMaxIn,PressureMinIn,WindSpeedMaxMPH,WindSpeedAvgMPH,GustSpeedMaxMPH,PrecipitationSumIn
2013-2-4,60.6,39.0,37.0,48.4,4.7,-99.9,79,48,53,31.70,17.89,6,-256,6,0.00
2013-2-5,67.8,46.0,28.6,51.4,33.9,25.2,91,66,35,27.44,19.39,5,0,5,0.00
2013-2-6,65.9,49.0,32.8,44.3,36.7,28.6,88,65,44,27.51,27.44,7,0,7,0.00
2013-2-7,56.9,51.4,43.8,53.2,47.6,39.3,92,87,77,29.01,20.03,10,0,10,0.06
2013-2-8,52.1,42.4,32.8,39.1,33.0,28.6,86,71,47,29.03,19.24,12,0,12,0.00
2013-2-9,49.9,41.2,33.8,42.1,33.8,28.8,92,76,48,28.42,17.82,13,0,13,0.13
2013-2-10,62.4,52.3,40.0,52.6,40.1,27.5,94,67,36,32.08,17.82,14,1,14,0.36
2013-2-11,54.6,40.9,29.3,31.4,26.1,23.2,83,58,34,26.32,22.81,5,0,5,0.00
2013-2-12,46.2,36.5,27.2,33.0,27.7,22.6,89,72,53,22.81,21.07,7,0,7,0.00
2013-2-14,59.0,52.4,44.5,37.5,34.6,31.1,60,51,43,0.00,40.00,0,0,0,0.00
2013-2-15,43.8,36.7,31.6,30.4,26.9,24.2,78,68,56,17.62,17.62,3,0,3,0.00
2013-2-18,59.0,47.3,34.5,52.1,37.3,25.6,82,68,60,25.86,19.12,12,1,12,0.06
2013-2-19,49.9,35.8,22.4,27.5,21.6,16.1,81,58,38,30.12,23.25,7,0,7,0.00
2013-2-20,35.2,31.5,25.9,30.0,22.8,14.9,84,71,51,22.57,17.22,9,0,9,0.09
2013-2-21,36.3,33.1,29.5,34.5,30.1,24.8,93,89,80,26.05,17.22,14,1,14,0.03
2013-2-22,39.9,31.6,21.8,32.3,24.0,17.7,92,74,57,26.05,17.31,6,0,6,0.02
2013-2-23,46.1,31.9,18.5,26.7,21.6,15.0,89,68,44,26.14,17.83,4,0,4,0.00
2013-2-24,59.7,42.8,22.9,38.8,30.0,19.3,90,63,42,24.55,20.39,7,0,7,0.00
2013-2-25,42.7,39.3,35.5,37.4,33.4,29.1,90,79,64,22.12,17.04,13,1,13,0.31
2013-2-26,37.0,33.9,32.8,34.3,31.6,30.7,93,91,89,20.48,20.33,10,0,10,0.12
2013-2-27,41.9,34.9,31.7,34.6,30.4,26.7,92,84,69,20.48,17.83,6,0,6,0.04
2013-2-28,39.4,33.5,27.7,30.4,27.6,24.5,90,79,67,21.66,17.83,7,0,7,0.00